Time,TemperatureF,DewpointF,PressureIn,WindDirection,WindDirectionDegrees,WindSpeedMPH,WindSpeedGustMPH,Humidity,HourlyPrecipIn,Conditions,Clouds,dailyrainin,SolarRadiationWatts/m^2,SoftwareType,DateUTC
2013-04-16 00:02:00,41.0,37.0,-100.00,ENE,69,1.0,7.0,87,0.00,,,0.00,0.000000,,2013-04-16 07:02:00,
2013-04-16 00:12:00,41.0,37.0,-100.00,ENE,69,1.0,7.0,87,0.00,,,0.00,0.000000,,2013-04-16 07:12:00,
2013-04-16 00:22:00,41.0,37.0,-100.00,ENE,69,1.0,7.0,87,0.00,,,0.00,0.000000,,2013-04-16 07:22:00,
2013-04-16 00:32:00,41.0,37.0,-100.00,ENE,69,1.0,7.0,87,0.00,,,0.00,0.000000,,2013-04-16 07:32:00,
2013-04-16 00:53:00,38.0,36.0,-100.00,NE,42,0.0,6.0,93,0.00,,,0.00,0.000000,,2013-04-16 07:53:00,
2013-04-16 01:02:00,38.0,36.0,-100.00,NE,42,0.0,6.0,93,0.00,,,0.00,0.000000,,2013-04-16 08:02:00,
2013-04-16 01:12:00,38.0,36.0,-100.00,NE,42,0.0,6.0,93,0.00,,,0.00,0.000000,,2013-04-16 08:12:00,
2013-04-16 01:22:00,38.0,36.0,-100.00,NE,42,0.0,6.0,93,0.00,,,0.00,0.000000,,2013-04-16 08:22:00,
2013-04-16 01:32:00,38.0,36.0,-100.00,NE,42,0.0,6.0,93,0.00,,,0.00,0.000000,,2013-04-16 08:32:00,
2013-04-16 01:52:00,37.0,36.0,-100.00,ENE,70,2.0,5.0,96,0.00,,,0.00,0.000000,,2013-04-16 08:52:00,
2013-04-16 02:02:00,37.0,36.0,-100.00,ENE,70,2.0,5.0,96,0.00,,,0.00,0.000000,,2013-04-16 09:02:00,
2013-04-16 02:12:00,37.0,36.0,-100.00,ENE,70,2.0,5.0,96,0.00,,,0.00,0.000000,,2013-04-16 09:12:00,
2013-04-16 02:22:00,37.0,36.0,-100.00,ENE,70,2.0,5.0,96,0.00,,,0.00,0.000000,,2013-04-16 09:22:00,
2013-04-16 02:32:00,37.0,36.0,-100.00,ENE,70,2.0,5.0,96,0.00,,,0.00,0.000000,,2013-04-16 09:32:00,
2013-04-16 02:53:00,37.0,35.0,-100.00,ENE,65,1.0,6.0,93,0.00,,,0.00,0.000000,,2013-04-16 09:53:00,
2013-04-16 03:03:00,37.0,35.0,-100.00,ENE,65,1.0,6.0,93,0.00,,,0.00,0.000000,,2013-04-16 10:03:00,
2013-04-16 03:12:00,37.0,35.0,-100.00,ENE,65,1.0,6.0,93,0.00,,,0.00,0.000000,,2013-04-16 10:12:00,
2013-04-16 03:22:00,37.0,35.0,-100.00,ENE,65,1.0,6.0,93,0.00,,,0.00,0.000000,,2013-04-16 10:22:00,
2013-04-16 03:32:00,37.0,35.0,-100.00,ENE,65,1.0,6.0,93,0.00,,,0.00,0.000000,,2013-04-16 10:32:00,
2013-04-16 03:53:00,36.0,34.0,-100.00,East,81,1.0,5.0,94,0.00,,,0.00,0.000000,,2013-04-16 10:53:00,
2013-04-16 04:02:00,36.0,34.0,-100.00,East,81,1.0,5.0,94,0.00,,,0.00,0.000000,,2013-04-16 11:02:00,
2013-04-16 04:12:00,36.0,34.0,-100.00,East,81,1.0,5.0,94,0.00,,,0.00,0.000000,,2013-04-16 11:12:00,
2013-04-16 04:22:00,36.0,34.0,-100.00,East,81,1.0,5.0,94,0.00,,,0.00,0.000000,,2013-04-16 11:22:00,
2013-04-16 04:32:00,36.0,34.0,-100.00,East,81,1.0,5.0,94,0.00,,,0.00,0.000000,,2013-04-16 11:32:00,
2013-04-16 04:53:00,35.0,33.0,-100.00,ENE,60,1.0,6.0,94,0.00,,,0.00,0.000000,,2013-04-16 11:53:00,
2013-04-16 05:02:00,35.0,33.0,-100.00,ENE,60,1.0,6.0,94,0.00,,,0.00,0.000000,,2013-04-16 12:02:00,
2013-04-16 05:12:00,35.0,33.0,-100.00,ENE,60,1.0,6.0,94,0.00,,,0.00,0.000000,,2013-04-16 12:12:00,
2013-04-16 05:22:00,35.0,33.0,-100.00,ENE,60,1.0,6.0,94,0.00,,,0.00,0.000000,,2013-04-16 12:22:00,
2013-04-16 05:31:00,35.0,33.0,-100.00,ENE,60,1.0,6.0,94,0.00,,,0.00,0.000000,,2013-04-16 12:31:00,
2013-04-16 05:52:00,35.0,33.0,-100.00,NNE,31,2.0,6.0,93,0.00,,,0.00,0.000000,,2013-04-16 12:52:00,
2013-04-16 06:02:00,35.0,33.0,-100.00,NNE,31,2.0,6.0,93,0.00,,,0.00,0.000000,,2013-04-16 13:02:00,
2013-04-16 06:12:00,35.0,33.0,-100.00,NNE,31,2.0,6.0,93,0.00,,,0.00,0.000000,,2013-04-16 13:12:00,
2013-04-16 06:22:00,35.0,33.0,-100.00,NNE,31,2.0,6.0,93,0.00,,,0.00,0.000000,,2013-04-16 13:22:00,
2013-04-16 06:32:00,35.0,33.0,-100.00,NNE,31,2.0,6.0,93,0.00,,,0.00,0.000000,,2013-04-16 13:32:00,
2013-04-16 06:52:00,33.0,32.0,-100.00,NNE,17,0.0,4.0,97,0.00,,,0.00,1.000000,,2013-04-16 13:52:00,
2013-04-16 07:02:00,33.0,32.0,-100.00,NNE,17,0.0,4.0,97,0.00,,,0.00,1.000000,,2013-04-16 14:02:00,
2013-04-16 07:12:00,33.0,32.0,-100.00,NNE,17,0.0,4.0,97,0.00,,,0.00,1.000000,,2013-04-16 14:12:00,
2013-04-16 07:22:00,33.0,32.0,-100.00,NNE,17,0.0,4.0,97,0.00,,,0.00,1.000000,,2013-04-16 14:22:00,
2013-04-16 07:32:00,33.0,32.0,-100.00,NNE,17,0.0,4.0,97,0.00,,,0.00,1.000000,,2013-04-16 14:32:00,
2013-04-16 07:52:00,36.0,35.0,-100.00,NE,37,1.0,4.0,95,0.00,,,0.00,53.000000,,2013-04-16 14:52:00,
2013-04-16 08:02:00,36.0,35.0,-100.00,NE,37,1.0,4.0,95,0.00,,,0.00,53.000000,,2013-04-16 15:02:00,
2013-04-16 08:12:00,36.0,35.0,-100.00,NE,37,1.0,4.0,95,0.00,,,0.00,53.000000,,2013-04-16 15:12:00,
2013-04-16 08:22:00,36.0,35.0,-100.00,NE,37,1.0,4.0,95,0.00,,,0.00,53.000000,,2013-04-16 15:22:00,
2013-04-16 08:32:00,36.0,35.0,-100.00,NE,37,1.0,4.0,95,0.00,,,0.00,53.000000,,2013-04-16 15:32:00,
2013-04-16 08:53:00,43.0,37.0,-100.00,North,349,0.0,4.0,80,0.00,,,0.00,235.000000,,2013-04-16 15:53:00,
2013-04-16 09:03:00,43.0,37.0,-100.00,North,349,0.0,4.0,80,0.00,,,0.00,235.000000,,2013-04-16 16:03:00,
2013-04-16 09:13:00,43.0,37.0,-100.00,North,349,0.0,4.0,80,0.00,,,0.00,235.000000,,2013-04-16 16:13:00,
2013-04-16 09:22:00,43.0,37.0,-100.00,North,349,0.0,4.0,80,0.00,,,0.00,235.000000,,2013-04-16 16:22:00,
2013-04-16 09:32:00,43.0,37.0,-100.00,North,349,0.0,4.0,80,0.00,,,0.00,235.000000,,2013-04-16 16:32:00,
2013-04-16 09:53:00,50.0,40.0,-100.00,SW,236,0.0,2.0,68,0.00,,,0.00,408.000000,,2013-04-16 16:53:00,
2013-04-16 10:02:00,50.0,40.0,-100.00,SW,236,0.0,2.0,68,0.00,,,0.00,408.000000,,2013-04-16 17:02:00,
2013-04-16 10:12:00,50.0,40.0,-100.00,SW,236,0.0,2.0,68,0.00,,,0.00,408.000000,,2013-04-16 17:12:00,
2013-04-16 10:22:00,50.0,40.0,-100.00,SW,236,0.0,2.0,68,0.00,,,0.00,408.000000,,2013-04-16 17:22:00,
2013-04-16 10:32:00,50.0,40.0,-100.00,SW,236,0.0,2.0,68,0.00,,,0.00,408.000000,,2013-04-16 17:32:00,
2013-04-16 10:53:00,57.0,33.0,-100.00,East,83,2.0,8.0,40,0.00,,,0.00,571.000000,,2013-04-16 17:53:00,
2013-04-16 11:02:00,57.0,33.0,-100.00,East,83,2.0,8.0,40,0.00,,,0.00,571.000000,,2013-04-16 18:02:00,
2013-04-16 11:52:00,59.0,28.0,-100.00,ENE,70,4.0,13.0,31,-99.99,,,0.00,702.000000,,2013-04-16 18:52:00,
2013-04-16 12:02:00,59.0,28.0,-100.00,ENE,70,4.0,13.0,31,-99.99,,,0.00,702.000000,,2013-04-16 19:02:00,
2013-04-16 12:52:00,60.0,28.0,-100.00,East,91,5.0,18.0,29,-99.99,,,0.00,794.000000,,2013-04-16 19:52:00,
2013-04-16 13:02:00,60.0,28.0,-100.00,East,91,5.0,18.0,29,-99.99,,,0.00,794.000000,,2013-04-16 20:02:00,
2013-04-16 13:12:00,60.0,28.0,-100.00,East,91,5.0,18.0,29,-99.99,,,0.00,794.000000,,2013-04-16 20:12:00,
2013-04-16 13:22:00,60.0,28.0,-100.00,East,91,5.0,18.0,29,-99.99,,,0.00,794.000000,,2013-04-16 20:22:00,
2013-04-16 13:52:00,60.0,25.0,-100.00,NE,42,5.0,14.0,26,-99.99,,,0.00,801.000000,,2013-04-16 20:52:00,
2013-04-16 14:02:00,60.0,25.0,-100.00,NE,42,5.0,14.0,26,-99.99,,,0.00,801.000000,,2013-04-16 21:02:00,
2013-04-16 14:12:00,60.0,25.0,-100.00,NE,42,5.0,14.0,26,-99.99,,,0.00,801.000000,,2013-04-16 21:12:00,
2013-04-16 14:22:00,60.0,25.0,-100.00,NE,42,5.0,14.0,26,-99.99,,,0.00,801.000000,,2013-04-16 21:22:00,
2013-04-16 14:32:00,60.0,25.0,-100.00,NE,42,5.0,14.0,26,-99.99,,,0.00,801.000000,,2013-04-16 21:32:00,
2013-04-16 14:53:00,63.0,24.0,-100.00,NE,47,2.0,12.0,22,0.00,,,0.00,783.000000,,2013-04-16 21:53:00,
2013-04-16 15:02:00,63.0,24.0,-100.00,NE,47,2.0,12.0,22,0.00,,,0.00,783.000000,,2013-04-16 22:02:00,
2013-04-16 15:52:00,62.0,24.0,-100.00,NE,41,4.0,13.0,23,-99.99,,,0.00,730.000000,,2013-04-16 22:52:00,
2013-04-16 16:02:00,62.0,24.0,-100.00,NE,41,4.0,13.0,23,-99.99,,,0.00,730.000000,,2013-04-16 23:02:00,
2013-04-16 16:12:00,62.0,24.0,-100.00,NE,41,4.0,13.0,23,-99.99,,,0.00,730.000000,,2013-04-16 23:12:00,
2013-04-16 16:22:00,62.0,24.0,-100.00,NE,41,4.0,13.0,23,-99.99,,,0.00,730.000000,,2013-04-16 23:22:00,
2013-04-16 16:52:00,62.0,23.0,-100.00,North,349,5.0,13.0,22,-99.99,,,0.00,597.000000,,2013-04-16 23:52:00,
2013-04-16 17:02:00,62.0,23.0,-100.00,North,349,5.0,13.0,22,-99.99,,,0.00,597.000000,,2013-04-17 00:02:00,
2013-04-16 17:12:00,62.0,23.0,-100.00,North,349,5.0,13.0,22,-99.99,,,0.00,597.000000,,2013-04-17 00:12:00,
2013-04-16 17:22:00,62.0,23.0,-100.00,North,349,5.0,13.0,22,-99.99,,,0.00,597.000000,,2013-04-17 00:22:00,
2013-04-16 17:52:00,61.0,24.0,-100.00,North,9,3.0,14.0,24,0.00,,,0.00,488.000000,,2013-04-17 00:52:00,
2013-04-16 18:02:00,61.0,24.0,-100.00,North,9,3.0,14.0,24,0.00,,,0.00,488.000000,,2013-04-17 01:02:00,
2013-04-16 18:12:00,61.0,24.0,-100.00,North,9,3.0,14.0,24,0.00,,,0.00,488.000000,,2013-04-17 01:12:00,
2013-04-16 18:22:00,61.0,24.0,-100.00,North,9,3.0,14.0,24,0.00,,,0.00,488.000000,,2013-04-17 01:22:00,
2013-04-16 18:32:00,61.0,24.0,-100.00,North,9,3.0,14.0,24,0.00,,,0.00,488.000000,,2013-04-17 01:32:00,
2013-04-16 18:52:00,59.0,23.0,-100.00,NE,38,3.0,11.0,25,0.00,,,0.00,312.000000,,2013-04-17 01:52:00,
2013-04-16 19:02:00,59.0,23.0,-100.00,NE,38,3.0,11.0,25,0.00,,,0.00,312.000000,,2013-04-17 02:02:00,
2013-04-16 19:12:00,59.0,23.0,-100.00,NE,38,3.0,11.0,25,0.00,,,0.00,312.000000,,2013-04-17 02:12:00,
2013-04-16 19:22:00,59.0,23.0,-100.00,NE,38,3.0,11.0,25,0.00,,,0.00,312.000000,,2013-04-17 02:22:00,
2013-04-16 19:32:00,59.0,23.0,-100.00,NE,38,3.0,11.0,25,0.00,,,0.00,312.000000,,2013-04-17 02:32:00,
2013-04-16 19:52:00,55.0,26.0,-100.00,North,356,2.0,9.0,32,0.00,,,0.00,127.000000,,2013-04-17 02:52:00,
2013-04-16 20:02:00,55.0,26.0,-100.00,North,356,2.0,9.0,32,0.00,,,0.00,127.000000,,2013-04-17 03:02:00,
2013-04-16 20:12:00,55.0,26.0,-100.00,North,356,2.0,9.0,32,0.00,,,0.00,127.000000,,2013-04-17 03:12:00,
2013-04-16 20:22:00,55.0,26.0,-100.00,North,356,2.0,9.0,32,0.00,,,0.00,127.000000,,2013-04-17 03:22:00,
2013-04-16 20:32:00,55.0,26.0,-100.00,North,356,2.0,9.0,32,0.00,,,0.00,127.000000,,2013-04-17 03:32:00,
2013-04-16 20:53:00,49.0,27.0,-100.00,NNW,331,0.0,5.0,42,0.00,,,0.00,8.000000,,2013-04-17 03:53:00,
2013-04-16 21:03:00,49.0,27.0,-100.00,NNW,331,0.0,5.0,42,0.00,,,0.00,8.000000,,2013-04-17 04:03:00,
2013-04-16 21:13:00,49.0,27.0,-100.00,NNW,331,0.0,5.0,42,0.00,,,0.00,8.000000,,2013-04-17 04:13:00,
2013-04-16 21:22:00,49.0,27.0,-100.00,NNW,331,0.0,5.0,42,0.00,,,0.00,8.000000,,2013-04-17 04:22:00,
2013-04-16 21:32:00,49.0,27.0,-100.00,NNW,331,0.0,5.0,42,0.00,,,0.00,8.000000,,2013-04-17 04:32:00,
2013-04-16 21:52:00,44.0,31.0,-100.00,NE,40,1.0,4.0,61,0.00,,,0.00,0.000000,,2013-04-17 04:52:00,
2013-04-16 22:02:00,44.0,31.0,-100.00,NE,40,1.0,4.0,61,0.00,,,0.00,0.000000,,2013-04-17 05:02:00,
2013-04-16 22:12:00,44.0,31.0,-100.00,NE,40,1.0,4.0,61,0.00,,,0.00,0.000000,,2013-04-17 05:12:00,
2013-04-16 22:22:00,44.0,31.0,-100.00,NE,40,1.0,4.0,61,0.00,,,0.00,0.000000,,2013-04-17 05:22:00,
2013-04-16 22:32:00,44.0,31.0,-100.00,NE,40,1.0,4.0,61,0.00,,,0.00,0.000000,,2013-04-17 05:32:00,
2013-04-16 22:52:00,44.0,33.0,-100.00,ENE,69,4.0,9.0,64,0.00,,,0.00,0.000000,,2013-04-17 05:52:00,
2013-04-16 23:02:00,44.0,33.0,-100.00,ENE,69,4.0,9.0,64,0.00,,,0.00,0.000000,,2013-04-17 06:02:00,
2013-04-16 23:12:00,44.0,33.0,-100.00,ENE,69,4.0,9.0,64,0.00,,,0.00,0.000000,,2013-04-17 06:12:00,
2013-04-16 23:22:00,44.0,33.0,-100.00,ENE,69,4.0,9.0,64,0.00,,,0.00,0.000000,,2013-04-17 06:22:00,
2013-04-16 23:32:00,44.0,33.0,-100.00,ENE,69,4.0,9.0,64,0.00,,,0.00,0.000000,,2013-04-17 06:32:00,
2013-04-16 23:52:00,41.0,32.0,-100.00,NE,42,2.0,8.0,70,0.00,,,0.00,0.000000,,2013-04-17 06:52:00,